WetterOnline ( https://www.wetteronline.de )

Wetter aktuell Jülich

Aktuelles Wetter: Nörvenich (120m)

6-stündlich | Neueste Meldungen
Ortszeit Temperatur Wetter
Mi, 18.05. 20:00 27.3° C wolkig
Mi, 18.05. 14:00 28.9° C leicht bewölkt
Mi, 18.05. 8:00 19.5° C leicht bewölkt
Mi, 18.05. 2:00 17.6° C leicht bewölkt
Di, 17.05. 20:00 24.1° C leicht bewölkt
Di, 17.05. 14:00 24.1° C wolkig
Di, 17.05. 8:00 15.2° C leicht bewölkt
Di, 17.05. 2:00 12.2° C wolkenlos
Ortszeit Temperatur Wetter
Do, 19.05. 1:00 18.5° C leicht bewölkt
Do, 19.05. 0:00 18.9° C leicht bewölkt
Mi, 18.05. 23:00 20.8° C leicht bewölkt
Mi, 18.05. 22:00 23.4° C leicht bewölkt
Mi, 18.05. 21:00 24.8° C leicht bewölkt
Mi, 18.05. 20:00 27.3° C wolkig
Mi, 18.05. 19:00 28.3° C wolkig
Ortszeit Relative Feuchte Sichtweite
Mi, 18.05. 20:00 38% 30 km
Mi, 18.05. 14:00 33% 40 km
Mi, 18.05. 8:00 63% 40 km
Mi, 18.05. 2:00 73% 30 km
Di, 17.05. 20:00 46% 30 km
Di, 17.05. 14:00 42% 45 km
Di, 17.05. 8:00 78% 30 km
Di, 17.05. 2:00 88% 30 km
Ortszeit Relative Feuchte Sichtweite
Do, 19.05. 1:00 76% 30 km
Do, 19.05. 0:00 74% 30 km
Mi, 18.05. 23:00 61% 30 km
Mi, 18.05. 22:00 50% 30 km
Mi, 18.05. 21:00 46% 30 km
Mi, 18.05. 20:00 38% 30 km
Mi, 18.05. 19:00 37% 30 km
Ortszeit Niederschlagsmenge Niederschlagsart
Mi, 18.05. 20:00 0.0 l/m2 in 12 Std. -
Mi, 18.05. 14:00 keine Meldung -
Mi, 18.05. 8:00 0.0 l/m2 in 12 Std. -
Mi, 18.05. 2:00 keine Meldung -
Di, 17.05. 20:00 0.0 l/m2 in 12 Std. -
Di, 17.05. 14:00 keine Meldung -
Di, 17.05. 8:00 0.0 l/m2 in 12 Std. -
Di, 17.05. 2:00 keine Meldung -
Ortszeit Niederschlagsmenge Niederschlagsart
Do, 19.05. 1:00 keine Meldung -
Do, 19.05. 0:00 keine Meldung -
Mi, 18.05. 23:00 keine Meldung -
Mi, 18.05. 22:00 keine Meldung -
Mi, 18.05. 21:00 keine Meldung -
Mi, 18.05. 20:00 keine Meldung -
Mi, 18.05. 19:00 keine Meldung -
Ortszeit Stärke Spitze Richtung
km/h Bft. km/h Grad Sektor
Mi, 18.05. 20:00 11 2 - 100° O
Mi, 18.05. 14:00 11 2 - 100° O
Mi, 18.05. 8:00 7 2 - 120° SO
Mi, 18.05. 2:00 7 2 - 130° SO
Di, 17.05. 20:00 11 2 - 110° O
Di, 17.05. 14:00 14 3 - 150° SO
Di, 17.05. 8:00 7 2 - - -
Di, 17.05. 2:00 4 1 - 240° SW
Ortszeit Stärke Spitze Richtung
km/h Bft. km/h Grad Sektor
Do, 19.05. 1:00 7 2 - 140° SO
Do, 19.05. 0:00 4 1 - 130° SO
Mi, 18.05. 23:00 7 2 - 120° SO
Mi, 18.05. 22:00 7 2 - 130° SO
Mi, 18.05. 21:00 7 2 - 210° SW
Mi, 18.05. 20:00 11 2 - 100° O
Mi, 18.05. 19:00 11 2 - 100° O
Ortszeit Untergrenze Bedeckung Gattung
total tief tief mittel hoch
Mi, 18.05. 20:00 1500 m 7/8 1/8 Cu Ac Ci
Mi, 18.05. 14:00 1500 m 5/8 2/8 Cu - Ci
Mi, 18.05. 8:00 750 m 4/8 2/8 Cu - Ci
Mi, 18.05. 2:00 2100 m 4/8 3/8 Sc Ac Ci
Di, 17.05. 20:00 2400 m 7/8 3/8 - Ac Ci
Di, 17.05. 14:00 1500 m 6/8 1/8 Cu Ac -
Di, 17.05. 8:00 2700 m 6/8 4/8 - Ac Ci
Di, 17.05. 2:00 - 0/8 0/8 - - -
Ortszeit Bedeckungsgrad in Achtel und Wolkenuntergrenze
Do, 19.05. 1:00 6(7500m)
Do, 19.05. 0:00 6(7500m)
Mi, 18.05. 23:00 1(2400m) 6(7800m)
Mi, 18.05. 22:00 1(2400m) 6(7500m)
Mi, 18.05. 21:00 3(2400m) 6(7500m)
Mi, 18.05. 20:00 1(1500m) 5(2700m) 5(7800m)
Mi, 18.05. 19:00 3(1500m) 3(2700m) 5(8400m)
Ortszeit Luftdruck NN (hPa) Tendenz (hPa in 3 Std.)
Mi, 18.05. 20:00 1019 - 0,4
Mi, 18.05. 14:00 1020 - 1,0
Mi, 18.05. 8:00 1021 + 1,0
Mi, 18.05. 2:00 1020 + 0,4
Di, 17.05. 20:00 1018 - 0,7
Di, 17.05. 14:00 1020 - 1,2
Di, 17.05. 8:00 1021 + 0,6
Di, 17.05. 2:00 1021 + 0,8
Ortszeit Luftdruck NN (hPa) Tendenz (hPa in 3 Std.)
Do, 19.05. 1:00 1019 - 0,2
Do, 19.05. 0:00 1019 + 0,1
Mi, 18.05. 23:00 1019 + 0,1
Mi, 18.05. 22:00 1019 0,0
Mi, 18.05. 21:00 1019 - 0,2
Mi, 18.05. 20:00 1019 - 0,4
Mi, 18.05. 19:00 1019 - 0,7
Ortszeit Schneehöhe (cm)
Mi, 18.05. 20:00 0
Mi, 18.05. 14:00 -
Mi, 18.05. 8:00 0
Mi, 18.05. 2:00 -
Di, 17.05. 20:00 0
Di, 17.05. 14:00 -
Di, 17.05. 8:00 0
Di, 17.05. 2:00 -
Ortszeit Schneehöhe (cm)
Do, 19.05. 1:00 -
Do, 19.05. 0:00 -
Mi, 18.05. 23:00 -
Mi, 18.05. 22:00 -
Mi, 18.05. 21:00 -
Mi, 18.05. 20:00 0
Mi, 18.05. 19:00 -
Link zu dieser Seite / Seite empfehlen

Das Wetter in ...